Find Starlink 33715

NORAD ID: 63441 Int'l Des: 2025-069 Owner: SPXS Country: US Constellation: starlink operational
LEOCIRCULAR

当前视图

正在加载3D地球...

About Starlink 33715

Starlink 33715 (NORAD 63441) is a starlink constellation satellite (v2 mini) launched Apr 4, 2025 by SPXS of US. It operates in LEO, CIRCULAR orbit with a mass of 575.00 kg.

即将过境

Passes for default location (London). Set your location on the main map for personalized predictions.

高度历史

Loading altitude history...

两行轨道根数

1 63441U 25069J 26263.42597707 .00001643 00000-0 59778-4 0 9994
2 63441 53.1592 308.4119 0001258 70.7390 289.3749 15.34388108 83355
Epoch: Sep 20, 2026 • Age: 22 hours

当前状态

高度 481.8 km
远地点 / 近地点 N/A
速度 7.62 km/s
星下点 -52.73°S, 109.55°E
发射日期 Apr 4, 2025
运行时间 1.4 years
类型 internet

技术详情

分类 Payload
质量 575.00 kg
干质量 530.00 kg
长度 0.30 m
跨度 29.00 m
形状 ? Box + pan
制造商 SPXS
平台类型 Starlink V2MO
阶段状态 In Orbit
所有者/国家 SPXS/US

Most Searched